EW0150 Weather Reports


time (UTC)temp
C
wind
direction
speed
KPH
gust
KPH
rain 1hr
cm
rain 24hr
cm
rain mn
cm
humidity
%
barometer
mb
20260901104006 21 300 6.4 16.1 0.00 0.00 0.00 58 1019.1
20260901103004 21 247 4.8 11.3 0.00 0.00 0.00 55 1019.1
20260901101004 21 292 6.4 16.1 0.00 0.00 0.00 57 1019.1
20260901100007 21 254 8.0 17.7 0.00 0.00 0.00 56 1019.1
20260901094007 21 265 8.0 20.9 0.00 0.00 0.00 61 1019.0
20260901092006 20 294 11.3 19.3 0.00 0.00 0.00 62 1019.0
20260901091004 21 288 11.3 20.9 0.00 0.00 0.00 59 1019.0
20260901090009 20 321 11.3 22.5 0.00 0.00 0.00 60 1019.0
20260901083006 20 270 16.1 27.4 0.00 0.00 0.00 61 1019.0
20260901082007 20 331 16.1 30.6 0.00 0.00 0.00 60 1018.9
20260901081004 20 310 14.5 25.7 0.00 0.00 0.00 60 1018.9
20260901080006 20 304 16.1 32.2 0.00 0.00 0.00 60 1018.9
20260901075007 19 321 16.1 30.6 0.00 0.00 0.00 62 1018.7
20260901074004 19 339 17.7 30.6 0.00 0.00 0.00 62 1018.7
20260901073006 19 309 14.5 29.0 0.00 0.00 0.00 62 1018.5
20260901072007 19 307 14.5 22.5 0.00 0.00 0.00 64 1018.6
20260901071005 19 305 11.3 22.5 0.00 0.00 0.00 65 1018.4
20260901070010 18 287 6.4 17.7 0.00 0.00 0.00 67 1018.3
20260901065006 18 296 4.8 12.9 0.00 0.00 0.00 69 1018.2
20260901064006 18 277 8.0 16.1 0.00 0.00 0.00 70 1018.2
20260901063007 17 289 11.3 17.7 0.00 0.00 0.00 70 1018.1
20260901062007 17 302 8.0 19.3 0.00 0.00 0.00 71 1018.0
20260901061005 17 279 6.4 12.9 0.00 0.00 0.00 72 1017.9
20260901060010 17 316 6.4 11.3 0.00 0.00 0.00 72 1017.7
20260901055006 17 196 6.4 14.5 0.00 0.00 0.00 74 1017.7
20260901054007 16 281 4.8 11.3 0.00 0.00 0.00 75 1017.5
20260901053006 16 302 4.8 11.3 0.00 0.00 0.00 75 1017.4
20260901050009 16 197 6.4 14.5 0.00 0.00 0.00 77 1016.9
20260901045007 15 238 4.8 11.3 0.00 0.00 0.00 78 1016.8
20260901044005 15 250 8.0 14.5 0.00 0.00 0.00 78 1016.7
20260901043008 15 260 8.0 16.1 0.00 0.00 0.00 78 1016.6
20260901042006 15 242 6.4 12.9 0.00 0.00 0.00 79 1016.5
20260901040011 13 257 1.6 4.8 0.00 0.00 0.00 84 1016.4
20260901034007 15 200 6.4 9.7 0.00 0.00 0.00 80 1016.1
20260901032008 15 217 8.0 12.9 0.00 0.00 0.00 80 1016.0
20260901031005 15 233 8.0 12.9 0.00 0.00 0.00 80 1016.0
20260901030012 15 227 8.0 11.3 0.00 0.00 0.00 80 1016.0
20260901024005 15 200 6.4 9.7 0.00 0.00 0.00 83 1015.9
20260901023008 13 217 3.2 6.4 0.00 0.00 0.00 88 1015.9
20260901022005 13 217 3.2 3.2 0.00 0.00 0.00 88 1015.9
20260901021007 13 217 1.6 3.2 0.00 0.00 0.00 88 1015.9
20260901020010 16 217 4.8 8.0 0.00 0.00 0.00 78 1015.8
20260901015005 16 225 6.4 9.7 0.00 0.00 0.00 78 1015.9
20260901014008 16 211 6.4 9.7 0.00 0.00 0.00 78 1015.9
20260901013005 16 217 6.4 9.7 0.00 0.00 0.00 76 1015.8
20260901012011 16 227 6.4 11.3 0.00 0.00 0.00 77 1016.0
20260901011005 17 221 8.0 11.3 0.00 0.00 0.00 77 1016.0
20260901010010 17 207 8.0 11.3 0.00 0.00 0.00 77 1016.0
20260901005005 16 209 6.4 9.7 0.00 0.00 0.00 78 1016.0
20260901003006 17 217 8.0 11.3 0.00 0.00 0.00 77 1016.1
20260901002008 17 213 6.4 9.7 0.00 0.00 0.00 79 1016.1
20260831235008 17 212 4.8 8.0 0.00 0.00 0.00 81 1016.2
20260831234004 16 221 4.8 6.4 0.00 0.00 0.00 88 1016.3
20260831233008 17 223 6.4 8.0 0.00 0.00 0.00 84 1016.4
20260831231003 16 209 4.8 8.0 0.00 0.00 0.00 88 1016.4
20260831230007 16 211 4.8 8.0 0.00 0.00 0.00 87 1016.5
20260831225005 15 205 4.8 8.0 0.00 0.00 0.00 91 1016.5
20260831223002 15 175 1.6 3.2 0.00 0.00 0.00 91 1016.5
20260831222005 15 175 3.2 3.2 0.00 0.00 0.00 91 1016.6
20260831221003 15 175 0.0 3.2 0.00 0.00 0.00 92 1016.5
20260831220011 15 175 3.2 4.8 0.00 0.00 0.00 91 1016.5
20260831214006 15 175 0.0 0.0 0.00 0.00 0.00 91 1016.4
20260831212006 15 175 3.2 4.8 0.00 0.00 0.00 90 1016.3
20260831211004 15 175 0.0 3.2 0.00 0.00 0.00 90 1016.0
20260831210009 15 175 1.6 3.2 0.00 0.00 0.00 90 1015.9
20260831205004 16 175 3.2 4.8 0.00 0.00 0.00 90 1015.9
20260831204006 15 175 1.6 4.8 0.00 0.00 0.00 91 1015.9
20260831203003 15 175 0.0 0.0 0.00 0.00 0.00 90 1015.7
20260831200009 16 149 3.2 8.0 0.00 0.00 0.00 88 1015.5
20260831194006 16 320 0.0 0.0 0.00 0.00 0.00 88 1015.5
20260831193005 16 320 1.6 1.6 0.00 0.00 0.00 88 1015.4
20260831192004 17 320 3.2 4.8 0.00 0.00 0.00 86 1015.3
20260831191004 17 319 3.2 4.8 0.00 0.00 0.00 85 1015.3
20260831190006 18 319 3.2 4.8 0.00 0.00 0.00 84 1015.2
20260831185004 18 320 1.6 3.2 0.00 0.00 0.00 82 1015.2
20260831184007 18 320 1.6 3.2 0.00 0.00 0.00 81 1015.2
20260831183004 19 320 0.0 3.2 0.00 0.00 0.00 79 1015.1
20260831182005 19 320 0.0 3.2 0.00 0.00 0.00 78 1015.1
20260831180007 20 320 4.8 8.0 0.00 0.00 0.00 76 1014.9
20260831175004 20 327 3.2 6.4 0.00 0.00 0.00 76 1014.6
20260831174006 20 333 4.8 6.4 0.00 0.00 0.00 75 1014.6
20260831172005 21 324 4.8 8.0 0.00 0.00 0.00 74 1014.3
20260831171004 21 333 8.0 16.1 0.00 0.00 0.00 72 1014.3
20260831165004 22 337 11.3 19.3 0.00 0.00 0.00 70 1014.2
20260831164007 23 342 8.0 16.1 0.00 0.00 0.00 67 1014.1
20260831163003 23 327 9.7 14.5 0.00 0.00 0.00 65 1014.1
20260831162004 23 340 9.7 17.7 0.00 0.00 0.00 65 1014.1
20260831161006 24 334 8.0 19.3 0.00 0.00 0.00 63 1014.0
20260831160006 25 333 8.0 12.9 0.00 0.00 0.00 62 1013.9
20260831155007 25 339 6.4 12.9 0.00 0.00 0.00 62 1013.9
20260831154005 25 342 6.4 12.9 0.00 0.00 0.00 64 1014.0
20260831153005 25 340 4.8 9.7 0.00 0.00 0.00 61 1014.0
20260831152008 25 341 4.8 9.7 0.00 0.00 0.00 61 1014.0
20260831151004 25 342 6.4 9.7 0.00 0.00 0.00 61 1013.9
20260831150011 25 350 8.0 14.5 0.00 0.00 0.00 62 1014.0
20260831145006 25 342 6.4 9.7 0.00 0.00 0.00 61 1014.1
20260831143005 25 304 8.0 14.5 0.00 0.00 0.00 61 1014.1
20260831142005 25 319 8.0 16.1 0.00 0.00 0.00 62 1014.1
20260831141005 25 332 8.0 16.1 0.00 0.00 0.00 61 1014.1
20260831140007 25 279 9.7 17.7 0.00 0.00 0.00 64 1014.1
20260831135007 24 287 11.3 22.5 0.00 0.00 0.00 64 1014.2
20260831134005 25 323 8.0 16.1 0.00 0.00 0.00 63 1014.2
20260831133007 24 288 8.0 16.1 0.00 0.00 0.00 65 1014.3
20260831132005 25 261 9.7 20.9 0.00 0.00 0.00 64 1014.3
20260831131006 25 270 11.3 22.5 0.00 0.00 0.00 62 1014.3
20260831130009 25 333 8.0 17.7 0.00 0.00 0.00 66 1014.4
20260831125004 23 265 9.7 16.1 0.00 0.00 0.00 69 1014.5
20260831123004 23 281 9.7 17.7 0.00 0.00 0.00 70 1014.5
20260831122006 23 312 11.3 19.3 0.00 0.00 0.00 69 1014.5
20260831121004 23 309 9.7 17.7 0.00 0.00 0.00 69 1014.5
20260831120009 23 294 6.4 14.5 0.00 0.00 0.00 68 1014.4
20260831115005 23 262 6.4 12.9 0.00 0.00 0.00 68 1014.3
20260831114007 23 279 4.8 9.7 0.00 0.00 0.00 66 1014.3
20260831113005 22 244 1.6 8.0 0.00 0.00 0.00 72 1014.3
20260831111006 22 274 0.0 3.2 0.00 0.00 0.00 72 1014.3
20260831110009 21 274 1.6 3.2 0.00 0.00 0.00 73 1014.1
20260831105005 21 274 1.6 4.8 0.00 0.00 0.00 72 1014.1